Location: Genova
(44.4170°N, 8.9500°E)
Time: 10:19:27
(UTC+01:00)

ISS - Visible Passes

Search period start: 22 January 2019 00:00
Search period end: 01 February 2019 00:00
Orbit: 404 x 410 km, 51.6° (Epoch: 23 January)

Date Brightness Start Highest point End Pass type
(mag) Time Alt. Az. Time Alt. Az. Time Alt. Az.
22 Jan -2.2 19:28:08 10° SW 19:30:01 30° SSW 19:30:01 30° SSW visible
23 Jan -2.8 18:37:11 10° SSW 18:40:08 31° SE 18:41:04 26° ESE visible
23 Jan -0.4 20:13:24 10° W 20:13:48 13° W 20:13:48 13° W visible
24 Jan -3.3 19:21:53 10° WSW 19:24:46 59° WNW 19:24:46 59° WNW visible
25 Jan -3.8 18:30:31 10° SW 18:33:48 72° SE 18:35:40 24° ENE visible
25 Jan -0.7 20:07:38 10° WNW 20:08:23 15° WNW 20:08:23 15° WNW visible
26 Jan -2.8 19:15:56 10° W 19:19:03 38° NNW 19:19:13 37° NNW visible
27 Jan -3.4 18:24:20 10° WSW 18:27:35 55° NNW 18:29:59 17° NE visible
27 Jan -0.9 20:01:51 10° WNW 20:02:42 15° NW 20:02:42 15° NW visible
28 Jan -2.3 19:10:08 10° WNW 19:13:00 27° NNW 19:13:25 26° N visible
29 Jan -2.6 18:18:23 10° W 18:21:25 33° NNW 18:24:07 12° NE visible
29 Jan -1.0 19:55:55 10° NW 19:56:49 15° NW 19:56:49 15° NW visible
30 Jan -2.1 19:04:16 10° WNW 19:06:58 23° N 19:07:29 22° NNE visible
31 Jan -2.2 18:12:30 10° WNW 18:15:19 25° N 18:18:07 10° NE visible
31 Jan -1.3 19:49:42 10° NW 19:50:52 17° NNW 19:50:52 17° NNW visible
